{"data":{"norad_id":67542,"intl_designator":"2026-014L","name":"STARLINK-35934","alt_names":[],"object_type":"PAYLOAD","status":"ACTIVE","operator":null,"country":"US","launch_date":"2026-01-22","launch_site_code":"AFWTR","launch_vehicle":null,"mission":null,"orbit_class":"UNKNOWN","rcs_meters":null,"size_class":null,"mass_kg":null,"dimensions":null,"purposes":["comms"],"wikipedia_slug":null,"has_3d_model":false,"image_url":null,"decayed_at":null,"tle_current":{"epoch":"2026-09-19T22:03:18.248544Z","epoch_age_seconds":122508,"freshness":"FRESH","line1":"1 67542U 26014L   26262.91896121  .00015640  00000+0  48587-3 0  9992","line2":"2 67542  97.2861 148.3657 0001221  63.3054 296.8313 15.33438238 38542","mean_motion":15.33438238,"eccentricity":0.0001221,"inclination_deg":97.2861,"raan_deg":148.3657,"arg_perigee_deg":63.3054,"mean_anomaly_deg":296.8313,"bstar":0.00048587,"rev_number":3854,"period_min":93.906618754866,"perigee_km":464.72767770076,"apogee_km":466.39890931243,"semimajor_km":6843.7002935066,"source":"CELESTRAK","updated_at":"2026-09-20T09:00:43.568527Z"}}}